Flag for Germany Weather past 2 weeks in Rathenow, Brandenburg, Germany

Now
56 °F

Overcast.


Feels Like: 56 °F
Forecast: 46 / 75 °F
Wind: No wind

Location: Neuruppin

Current Time: Jul 31, 2015 at 10:20:41 PM

Latest Report: Jul 31, 2015 at 10:00 PM


Visibility: 6 mi

Pressure: 30.09 "Hg

Humidity: 74%

Dew point: 48 °F

Location of RathenowLocation

Historic Weather in Rathenow — Graph

°F

Rathenow temperature yesterday

Maximum temperature yesterday: 65 °F (at 4:00 PM)
Minimum temperature yesterday: 53 °F (at 1:00 AM)
Average temperature yesterday: 59 °F

Past Weeks' High & Low Weather Summary

 TemperatureHumidityPressure
High83 °F (Jul 17, 6:00 PM)97% (Jul 20, 12:00 AM)30.09 "Hg (Jul 20, 12:00 AM)
Low50 °F (Jul 31, 4:00 AM)35% (Jul 25, 4:00 PM)29.50 "Hg (Jul 25, 3:00 PM)
Average65 °F71%29.83 "Hg
* Reported Jul 16 9:00 PM — Jul 31 9:00 PM, Rathenow, Weather by CustomWeather, © 2015

Note: Actual official high and low records may vary slightly from our data, if they occured in-between our weather recording intervals... More about our weather records

Advertising

Rathenow weather history for previous 24 hours

 ConditionsComfort  
Time TempWeatherWind HumidityBarometerVisibility
9:00 PM
Fri, Jul 31
58 °FOvercast.No wind67%30.09 "Hg6 mi
8:00 PM61 °FOvercast.1 mph58%30.08 "Hg6 mi
7:00 PM62 °FOvercast.1 mph51%30.08 "Hg6 mi
6:00 PM62 °FOvercast.1 mph55%30.07 "Hg6 mi
4:00 PM62 °FOvercast.3 mph55%30.09 "Hg6 mi
3:00 PM63 °FOvercast.5 mph48%30.09 "Hg6 mi
2:00 PM62 °FOvercast.3 mph54%30.09 "Hg6 mi
1:00 PM60 °FOvercast.5 mph57%30.08 "Hg6 mi
12:00 PM61 °FOvercast.2 mph58%30.08 "Hg6 mi
10:00 AM59 °FPartly sunny.3 mph64%30.06 "Hg6 mi
9:00 AM57 °FPartly sunny.5 mph72%30.06 "Hg6 mi
8:00 AM54 °FSunny.3 mph84%30.04 "Hg6 mi
7:00 AM52 °FSunny.2 mph88%30.03 "Hg6 mi
4:00 AM50 °FPassing clouds.2 mph90%29.99 "Hg6 mi
3:00 AM50 °FPassing clouds.2 mph88%29.98 "Hg6 mi
2:00 AM52 °FPassing clouds.2 mph83%29.97 "Hg6 mi
1:00 AM54 °FPassing clouds.2 mph79%29.96 "Hg6 mi
10:00 PM
Thu, Jul 30
56 °FPassing clouds.2 mph73%29.93 "Hg6 mi
Weather by CustomWeather, © 2015

See weather overviewHow to use our weather pages